Location: Düngen
(52.0952°N, 10.0219°E)
Time: 19:37:42
(UTC+00:00)

ERS-1 Rocket - Pass Details

Date: 11 March 2026
Orbit: 747 x 750 km, 98.2° (Epoch: 20 April)

Event Time Altitude Azimuth Distance (km) Brightness Sun altitude
Exits shadow 20:05:22 28° 204° (SSW) 1,392 4.2 -25.6°
Maximum altitude 20:07:40 47° 261° (W) 993 3.8 -25.9°
Drops below altitude 10° 20:12:30 10° 335° (NNW) 2,278 6.2 -26.6°
Sets 20:14:54 0° 342° (NNW) 3,207 7.0 -26.9°
